Regional Weather Roundup
Issued by NWS

Home | Current Version | Previous Version | Graphics & Text | Print | Product List | Glossary On
Versions: 1 2 3 4 5 6 7 8 9 10 11 12 13 14 15 16 17 18 19 20 21 22 23 24 25 26 27 28 29 30 31 32 33 34 35 36 37 38 39 40 41 42 43 44 45 46 47 48 49 50
000
ASUS43 KMPX 311410
RWRMN
WEATHER ROUNDUP FOR MINNESOTA
NATIONAL WEATHER SERVICE TWIN CITIES/CHANHASSEN MN
900 AM CDT TUE MAY 31 2016


NOTE: "FAIR" INDICATES FEW OR NO CLOUDS BELOW 12,000 FEET WITH NO
SIGNIFICANT WEATHER AND/OR OBSTRUCTIONS TO VISIBILITY. N/A MEANS
CURRENT SKY AND/OR WEATHER CONDITIONS ARE NOT AVAILABLE.

MNZ060>063-068>070-311500-
   Twin Cities Metro

CITY           SKY/WX    TMP DP  RH WIND       PRES   REMARKS
TWIN CITIES    LGT RAIN  64  61  90 SE9       29.87S
ST PAUL        LGT RAIN  63  61  93 SE14      29.88S
CRYSTAL        CLOUDY    66  58  75 S12       29.85S
BLAINE         LGT RAIN  66  63  88 S10       29.87R
EDEN PRAIRIE   LGT RAIN  66  60  81 S7        29.86S
SOUTH ST PAUL  LGT RAIN  63  61  95 SE5       29.88F
LAKE ELMO      LGT RAIN  63  61  94 SE8       29.91R
$$
MNZ001>005-007-008-013>017-022>024-027-028-311500-
   Northwest Minnesota

CITY           SKY/WX    TMP DP  RH WIND       PRES   REMARKS
BEMIDJI        CLOUDY    52  51  96 SE12G22   29.81S
HALLOCK        CLOUDY    57  55  94 SE17G23   29.69S FOG
ROSEAU         LGT RAIN  54  48  82 E15G23    29.77F
WARROAD        RAIN      52  48  87 SE16      29.81S
THIEF RVR FALL CLOUDY    57  54  88 SE17      29.73F
CROOKSTON      CLOUDY    61  59  94 S13       29.71F
FOSSTON        CLOUDY    55  55 100 SE9G21    29.75S
DETROIT LAKES  RAIN      61  59  94 SW8       29.77S
MOORHEAD       CLOUDY    63  57  82 SW12      29.75S
PARK RAPIDS    CLOUDY    57  55  93 SE10      29.79F
MAHNOMEN       DRIZZLE   60  59  96 S8        29.74S
$$
MNZ006-009>011-018-025>026-311500-
   North Central Minnesota

CITY           SKY/WX    TMP DP  RH WIND       PRES   REMARKS
BAUDETTE       LGT RAIN  50  47  89 SE23G35   29.83S
FLAG ISLAND    LGT RAIN  52  48  87 E10G23    29.83F
INTL FALLS     RAIN      48  45  89 E15       29.92S FOG
WASKISH        LGT RAIN  50  48  93 E16G25    29.83F
BIG FORK       RAIN      48  46  93 E6        29.89F
LONGVILLE      LGT RAIN  52  50  93 E8        29.84F
GRAND RAPIDS   LGT RAIN  49  47  93 NE8       29.88F
CRANE LAKE     LGT RAIN  46  45  93 CALM      29.98S
ORR            LGT RAIN  46  43  87 CALM      29.92R
COOK           CLOUDY    48  45  87 E6        29.93F
WALKER         RAIN      52  51  95 SE7       29.83S
$$
MNZ012-019>021-037-311500-
   Northeast Minnesota

CITY           SKY/WX    TMP DP  RH WIND       PRES   REMARKS
DULUTH         CLOUDY    46  40  79 E18G29    29.96F
ELY            CLOUDY    48  39  71 E10G17    29.98S
HIBBING        LGT RAIN  48  44  86 E10       29.92F
EVELETH        CLOUDY    52  41  66 E6G17     29.95F
DULUTH HARBOR  CLOUDY    45  43  93 NE29G36   29.99S
TWO HARBORS    CLOUDY    48  43  81 NE18G29   29.97F
SILVER BAY     PTSUNNY   45  39  81 NE12G23   30.03R
GRAND MARAIS     N/A     47  38  71 NE17G31   30.06F
G MARAIS ARPRT CLOUDY    48  36  61 E16G22    30.06F
$$
MNZ029>031-032-039>041-046>048-054>057-064-311500-
   West Central Minnesota

CITY           SKY/WX    TMP DP  RH WIND       PRES   REMARKS
FERGUS FALLS   CLOUDY    61  61 100 W14       29.76R
WHEATON        CLOUDY    63  57  82 SW10      29.81S
MORRIS         PTSUNNY   63  57  82 W15       29.81R
ALEXANDRIA     CLOUDY    62  59  90 SW12      29.81S
ELBOW LAKE     CLOUDY    61  58  89 SW14      29.80S
WADENA         RAIN      61  59  94 SE13G18   29.78F
GLENWOOD       CLOUDY    61  57  88 SW12      29.83R
APPLETON       CLOUDY    63  55  77 W12       29.83R
ORTONVILLE     CLOUDY    63  54  72 W13       29.82S
MADISON        CLOUDY    63  55  77 W10       29.85R
WILLMAR        CLOUDY    63  61  94 SW8       29.86R
$$
MNZ033>034-036-042>043-049>051-058-059-311500-
   Central Minnesota

CITY           SKY/WX    TMP DP  RH WIND       PRES   REMARKS
ST CLOUD       LGT RAIN  63  61  93 S12       29.84S
SAUK CENTRE    CLOUDY    62  61  96 SE10      29.82S
PAYNESVILLE    CLOUDY    62  62 100 S7        29.84S
AITKIN         MIX PCPN  52  46  82 E5        29.87R
PINE RIVER     LGT RAIN  52  52 100 SE12      29.87S
BRAINERD       RAIN      53  52  96 VRB7      29.85S FOG
STAPLES        RAIN      61  59  94 S6        29.81F
LONG PRAIRIE   CLOUDY    61  59  94 E10       29.82F
LITTLE FALLS   LGT RAIN  61  59  94 E9        29.83F
LITCHFIELD     CLOUDY    64  64 100 CALM      29.86R
BUFFALO        LGT RAIN  64  59  85 S8        29.87F
MAPLE LAKE     LGT RAIN  64  62  93 S7        29.87S
HUTCHINSON     PTSUNNY   64  63  95 S6        29.87S
$$
MNZ037-044-045-052-053-311500-
   East Central Minnesota

CITY           SKY/WX    TMP DP  RH WIND       PRES   REMARKS
PRINCETON      LGT RAIN  64  61  88 SE6       29.87R
MORA           DRIZZLE   54  48  82 E6        29.90R
CAMBRIDGE      RAIN      66  55  68 SE5       29.85S
RUSH CITY      CLOUDY    60  54  82 NE3       29.88S
MOOSE LAKE     CLOUDY    45  41  87 E10G18    29.90S
HINCKLEY       LGT RAIN  52  48  87 NE7       29.90R
CLOQUET        DRIZZLE   45  41  87 E15G23    29.94F
MCGREGOR       CLOUDY    46  46 100 E12G17    29.90R
$$
MNZ071>073-080-081-089-090-097-098-311500-
   Southwest Minnesota

CITY           SKY/WX    TMP DP  RH WIND       PRES   REMARKS
MONTEVIDEO     CLOUDY    63  63 100 W8        29.86S
GRANITE FALLS  CLOUDY    64  59  83 SW12      29.88R
CANBY          CLOUDY    64  57  80 W9        29.87S
MARSHALL       CLOUDY    62  56  80 W14       29.88R
REDWOOD FALLS  CLOUDY    64  59  83 W13       29.86R
OLIVIA         CLOUDY    72  68  88 W13       29.86R
PIPESTONE      CLOUDY    61  55  82 W8        29.91S
WINDOM         PTSUNNY   64  61  88 W13G18    29.89S
WORTHINGTON    CLOUDY    60  57  89 W13       29.91S
JACKSON        DRIZZLE   63  59  88 W12G17    29.89F
TRACY          CLOUDY    62  58  87 W6        29.89S
SLAYTON        CLOUDY    59  56  89 W12       29.90F
$$
MNZ065>067-074>077-082>085-091>093-311500-
   South Central Minnesota

CITY           SKY/WX    TMP DP  RH WIND       PRES   REMARKS
MANKATO        CLOUDY    64  61  88 S10       29.88S
NEW ULM        CLOUDY    64  63  94 SW9       29.87S
ST JAMES       DRIZZLE   59  57  94 SW10      29.89S
FAIRMONT       CLOUDY    64  61  88 S9        29.88F
GLENCOE        CLOUDY    65  64  96 S9        29.87R
FARIBAULT      CLOUDY    63  61  94 S9        29.89S
OWATONNA       LGT RAIN  63  59  88 S15G21    29.90S
WASECA         CLOUDY    63  59  88 S14       29.91R
ALBERT LEA     CLOUDY    64  61  88 S10       29.91S
$$
MNZ078>079-086>088-094>096-311500-
   Southeast Minnesota

CITY           SKY/WX    TMP DP  RH WIND       PRES   REMARKS
ROCHESTER      CLOUDY    68  60  75 S14       29.93S
RED WING       CLOUDY    63  61  94 E3        29.90F
STANTON        RAIN      64  59  85 SE9       29.88F
DODGE CENTER   PTSUNNY   66  57  72 S16G24    29.92S
WINONA         PTSUNNY   72  59  64 S6        29.93S
AUSTIN         CLOUDY    64  57  77 S12       29.93R
PRESTON        CLOUDY    66  57  72 S9        29.95S
$$
ABBREVIATIONS USED IN REMARKS
   TC - TEMPERATURES IN CELSIUS
  WCI - WIND CHILL INDEX
   HX - HEAT INDEX
  VSB - VISIBILITY
$$



USA.gov is the U.S. government's official web portal to all federal, state and local government web resources and services.